AFL740 UUDD-UWGG

Flight info

Callsign AFL740
Flight time 0h 56m
Altitude 290
Route KOGOM L94 USTOK
Aircraft A320/M-VGDW/C

Departure

Time 2026-04-23 12:08
Airport Domodedovo International Airport (UUDD)

Arrival

Time 2026-04-23 13:04
Airport Nizhny Novgorod / Strigino International Airport (UWGG)
Time Latitude Longitude Altitude Speed Heading
2026-04-23 11:35 55.41343 37.90282 574 ft 0 kts 51°
2026-04-23 11:54 55.41341 37.90278 574 ft 2 kts 51°
2026-04-23 11:55 55.41330 37.90255 576 ft 2 kts 51°
2026-04-23 11:55 55.41323 37.90240 577 ft 2 kts 51°
2026-04-23 11:55 55.41313 37.90218 577 ft 2 kts 51°
2026-04-23 11:55 55.41305 37.90194 574 ft 2 kts 92°
2026-04-23 11:56 55.41307 37.90174 574 ft 0 kts 141°
2026-04-23 12:00 55.41306 37.90175 574 ft 1 kts 141°
2026-04-23 12:00 55.41295 37.90189 577 ft 4 kts 144°
2026-04-23 12:01 55.41264 37.90226 572 ft 6 kts 146°
2026-04-23 12:01 55.41230 37.90267 570 ft 6 kts 146°
2026-04-23 12:01 55.41195 37.90308 568 ft 5 kts 146°
2026-04-23 12:01 55.41168 37.90340 572 ft 4 kts 146°
2026-04-23 12:02 55.41144 37.90369 570 ft 6 kts 146°
2026-04-23 12:02 55.41087 37.90406 570 ft 11 kts 184°
2026-04-23 12:02 55.41040 37.90285 566 ft 14 kts 263°
2026-04-23 12:02 55.40998 37.90113 572 ft 15 kts 236°
2026-04-23 12:03 55.40947 37.89980 570 ft 12 kts 236°
2026-04-23 12:03 55.40892 37.89838 572 ft 15 kts 236°
2026-04-23 12:03 55.40826 37.89668 571 ft 18 kts 236°
2026-04-23 12:03 55.40748 37.89558 569 ft 16 kts 231°
2026-04-23 12:04 55.40678 37.89383 573 ft 19 kts 232°
2026-04-23 12:04 55.40609 37.89377 570 ft 9 kts 143°
2026-04-23 12:04 55.40542 37.89464 568 ft 15 kts 146°
2026-04-23 12:04 55.40442 37.89582 567 ft 20 kts 146°
2026-04-23 12:05 55.40321 37.89728 564 ft 21 kts 146°
2026-04-23 12:05 55.40210 37.89861 561 ft 18 kts 145°
2026-04-23 12:05 55.40116 37.89975 557 ft 11 kts 146°
2026-04-23 12:05 55.40058 37.89967 555 ft 8 kts 230°
2026-04-23 12:06 55.40054 37.89902 555 ft 3 kts 289°
2026-04-23 12:06 55.40066 37.89854 559 ft 5 kts 292°
2026-04-23 12:06 55.40111 37.89664 558 ft 11 kts 292°
2026-04-23 12:07 55.40173 37.89543 564 ft 21 kts 323°
2026-04-23 12:07 55.40482 37.89172 570 ft 86 kts 326°
2026-04-23 12:07 55.41133 37.88389 580 ft 138 kts 326°
2026-04-23 12:07 55.41996 37.87355 1011 ft 148 kts 328°
2026-04-23 12:08 55.42772 37.86155 1777 ft 149 kts 315°
2026-04-23 12:08 55.43439 37.84765 2501 ft 148 kts 317°
2026-04-23 12:08 55.44103 37.83388 3159 ft 150 kts 318°
2026-04-23 12:08 55.44835 37.81905 3513 ft 171 kts 317°
2026-04-23 12:09 55.45671 37.80224 3802 ft 194 kts 317°
2026-04-23 12:09 55.46611 37.78408 4397 ft 202 kts 325°
2026-04-23 12:09 55.47876 37.77256 4902 ft 215 kts 345°
2026-04-23 12:09 55.49321 37.76371 5532 ft 228 kts 343°
2026-04-23 12:10 55.50863 37.75495 6200 ft 242 kts 352°
2026-04-23 12:10 55.52565 37.75739 6875 ft 253 kts 21°
2026-04-23 12:10 55.54015 37.77563 7701 ft 262 kts 52°
2026-04-23 12:10 55.54825 37.80503 8581 ft 270 kts 67°
2026-04-23 12:11 55.55449 37.83654 9561 ft 273 kts 68°
2026-04-23 12:11 55.56063 37.86812 10389 ft 278 kts 69°
2026-04-23 12:11 55.56696 37.90075 11166 ft 284 kts 70°
2026-04-23 12:11 55.57341 37.93400 11981 ft 288 kts 70°
2026-04-23 12:12 55.58000 37.96779 12782 ft 293 kts 71°
2026-04-23 12:12 55.58671 38.00216 13476 ft 299 kts 71°
2026-04-23 12:12 55.59354 38.03714 14142 ft 303 kts 71°
2026-04-23 12:12 55.60051 38.07269 14817 ft 308 kts 71°
2026-04-23 12:13 55.60742 38.10883 15479 ft 312 kts 75°
2026-04-23 12:13 55.61097 38.14681 16149 ft 314 kts 89°
2026-04-23 12:13 55.60961 38.18625 16407 ft 330 kts 104°
2026-04-23 12:13 55.60441 38.22643 16873 ft 338 kts 105°
2026-04-23 12:14 55.59908 38.26723 17487 ft 343 kts 105°
2026-04-23 12:14 55.59372 38.30861 18066 ft 346 kts 106°
2026-04-23 12:14 55.58833 38.35033 18631 ft 350 kts 105°
2026-04-23 12:14 55.58350 38.39220 19173 ft 355 kts 99°
2026-04-23 12:15 55.58297 38.43625 19708 ft 363 kts 87°
2026-04-23 12:15 55.58791 38.48048 20220 ft 371 kts 75°
2026-04-23 12:15 55.59835 38.52258 20760 ft 378 kts 62°
2026-04-23 12:15 55.61183 38.56289 21276 ft 383 kts 62°
2026-04-23 12:16 55.62543 38.60375 21703 ft 389 kts 62°
2026-04-23 12:16 55.63923 38.64535 22178 ft 394 kts 63°
2026-04-23 12:16 55.65316 38.68749 22687 ft 398 kts 63°
2026-04-23 12:16 55.66720 38.73007 23112 ft 403 kts 63°
2026-04-23 12:17 55.68140 38.77329 23535 ft 406 kts 63°
2026-04-23 12:17 55.69568 38.81677 23975 ft 409 kts 63°
2026-04-23 12:17 55.70999 38.86046 24419 ft 412 kts 63°
2026-04-23 12:17 55.72425 38.90398 24841 ft 414 kts 61°
2026-04-23 12:18 55.74099 38.94593 25261 ft 420 kts 51°
2026-04-23 12:18 55.76091 38.98409 25678 ft 423 kts 48°
2026-04-23 12:18 55.78125 39.02215 26109 ft 426 kts 47°
2026-04-23 12:18 55.80171 39.06052 26540 ft 428 kts 47°
2026-04-23 12:19 55.82218 39.09910 26954 ft 430 kts 48°
2026-04-23 12:19 55.84203 39.13917 27335 ft 432 kts 54°
2026-04-23 12:19 55.85844 39.18420 27596 ft 437 kts 64°
2026-04-23 12:19 55.87213 39.23299 27741 ft 444 kts 65°
2026-04-23 12:20 55.88596 39.28273 27890 ft 452 kts 65°
2026-04-23 12:20 55.90004 39.33329 28025 ft 460 kts 65°
2026-04-23 12:20 55.91438 39.38479 28185 ft 467 kts 65°
2026-04-23 12:20 55.92889 39.43699 28331 ft 472 kts 65°
2026-04-23 12:21 55.95776 39.54129 28358 ft 471 kts 65°
2026-04-23 12:21 55.98668 39.64630 28358 ft 471 kts 65°
2026-04-23 12:22 56.01626 39.75104 28360 ft 472 kts 64°
2026-04-23 12:22 56.04727 39.85462 28360 ft 472 kts 63°
2026-04-23 12:23 56.07833 39.95818 28357 ft 472 kts 64°
2026-04-23 12:23 56.10869 40.06169 28354 ft 472 kts 64°
2026-04-23 12:24 56.13897 40.16609 28349 ft 472 kts 64°
2026-04-23 12:24 56.16916 40.27052 28351 ft 472 kts 64°
2026-04-23 12:25 56.19918 40.37444 28328 ft 473 kts 65°
2026-04-23 12:25 56.22941 40.47962 28335 ft 474 kts 65°
2026-04-23 12:26 56.25380 40.58883 28341 ft 469 kts 80°
2026-04-23 12:26 56.25948 40.70419 28336 ft 460 kts 98°
2026-04-23 12:27 56.25473 40.81884 28343 ft 460 kts 98°
2026-04-23 12:27 56.25005 40.93372 28351 ft 460 kts 98°
2026-04-23 12:28 56.24533 41.04776 28352 ft 460 kts 99°
2026-04-23 12:28 56.24038 41.16263 28349 ft 460 kts 99°
2026-04-23 12:29 56.23530 41.27731 28327 ft 460 kts 99°
2026-04-23 12:29 56.23009 41.39189 28339 ft 460 kts 99°
2026-04-23 12:30 56.22481 41.50571 28340 ft 460 kts 99°
2026-04-23 12:30 56.21941 41.62017 28349 ft 460 kts 99°
2026-04-23 12:31 56.21394 41.73464 28349 ft 460 kts 100°
2026-04-23 12:31 56.20837 41.84915 28347 ft 460 kts 100°
2026-04-23 12:32 56.20268 41.96358 28335 ft 460 kts 100°
2026-04-23 12:32 56.19684 42.07798 28346 ft 460 kts 100°
2026-04-23 12:33 56.19091 42.19230 28345 ft 460 kts 100°
2026-04-23 12:33 56.18791 42.24919 27698 ft 456 kts 100°
2026-04-23 12:33 56.18483 42.30606 26661 ft 459 kts 100°
2026-04-23 12:34 56.18171 42.36311 25843 ft 458 kts 100°
2026-04-23 12:34 56.17859 42.41968 25121 ft 454 kts 100°
2026-04-23 12:34 56.17547 42.47594 24406 ft 452 kts 100°
2026-04-23 12:34 56.17239 42.53115 23704 ft 449 kts 100°
2026-04-23 12:35 56.16922 42.58675 22988 ft 447 kts 99°
2026-04-23 12:35 56.16603 42.64210 22244 ft 443 kts 99°
2026-04-23 12:35 56.16287 42.69674 21602 ft 438 kts 99°
2026-04-23 12:35 56.15973 42.75088 20963 ft 434 kts 99°
2026-04-23 12:36 56.15661 42.80438 20349 ft 429 kts 99°
2026-04-23 12:36 56.15349 42.85726 19773 ft 423 kts 99°
2026-04-23 12:36 56.15039 42.90953 19212 ft 419 kts 99°
2026-04-23 12:36 56.14735 42.96111 18678 ft 413 kts 99°
2026-04-23 12:37 56.14435 43.01217 18155 ft 409 kts 99°
2026-04-23 12:37 56.14135 43.06205 17642 ft 404 kts 99°
2026-04-23 12:37 56.13830 43.11183 17089 ft 399 kts 99°
2026-04-23 12:37 56.13527 43.16152 16578 ft 394 kts 98°
2026-04-23 12:38 56.13501 43.20992 16072 ft 393 kts 88°
2026-04-23 12:38 56.13948 43.25806 15562 ft 391 kts 77°
2026-04-23 12:38 56.14781 43.30438 15034 ft 389 kts 73°
2026-04-23 12:38 56.15649 43.35021 14521 ft 386 kts 73°
2026-04-23 12:39 56.16502 43.39578 13978 ft 384 kts 73°
2026-04-23 12:39 56.17345 43.44119 13425 ft 383 kts 74°
2026-04-23 12:39 56.18183 43.48662 12835 ft 382 kts 74°
2026-04-23 12:39 56.19014 43.53179 12271 ft 379 kts 74°
2026-04-23 12:40 56.19775 43.57322 11730 ft 377 kts 74°
2026-04-23 12:40 56.20593 43.61768 11160 ft 374 kts 74°
2026-04-23 12:40 56.21407 43.66188 10578 ft 371 kts 74°
2026-04-23 12:40 56.22213 43.70576 10107 ft 365 kts 74°
2026-04-23 12:41 56.22990 43.74820 9979 ft 350 kts 74°
2026-04-23 12:41 56.23728 43.78845 9854 ft 336 kts 74°
2026-04-23 12:41 56.24450 43.82769 9724 ft 324 kts 74°
2026-04-23 12:41 56.25141 43.86554 9612 ft 313 kts 75°
2026-04-23 12:42 56.25806 43.90223 9408 ft 305 kts 75°
2026-04-23 12:42 56.26451 43.93814 9294 ft 300 kts 75°
2026-04-23 12:42 56.27093 43.97390 9135 ft 300 kts 75°
2026-04-23 12:42 56.27726 44.00922 9002 ft 292 kts 75°
2026-04-23 12:43 56.28382 44.04351 8673 ft 290 kts 67°
2026-04-23 12:43 56.29572 44.07276 8267 ft 293 kts 41°
2026-04-23 12:43 56.31338 44.09043 7807 ft 293 kts 15°
2026-04-23 12:43 56.33373 44.09320 7091 ft 299 kts 348°
2026-04-23 12:44 56.35329 44.08150 6422 ft 304 kts 334°
2026-04-23 12:44 56.37289 44.06679 5716 ft 304 kts 334°
2026-04-23 12:44 56.39225 44.05230 5014 ft 298 kts 334°
2026-04-23 12:44 56.41113 44.03796 4349 ft 291 kts 331°
2026-04-23 12:45 56.42643 44.01521 3887 ft 280 kts 299°
2026-04-23 12:45 56.43265 43.98400 3812 ft 254 kts 270°
2026-04-23 12:45 56.43017 43.95420 3722 ft 232 kts 245°
2026-04-23 12:45 56.42411 43.92817 3642 ft 218 kts 243°
2026-04-23 12:46 56.41828 43.90361 3562 ft 208 kts 243°
2026-04-23 12:46 56.41261 43.88007 3482 ft 199 kts 240°
2026-04-23 12:46 56.40478 43.86053 3409 ft 187 kts 221°
2026-04-23 12:46 56.39422 43.84777 3312 ft 181 kts 202°
2026-04-23 12:47 56.38231 43.84186 3114 ft 180 kts 192°
2026-04-23 12:47 56.37008 43.83737 2887 ft 179 kts 192°
2026-04-23 12:47 56.35786 43.83287 2663 ft 178 kts 193°
2026-04-23 12:47 56.34605 43.82852 2413 ft 167 kts 193°
2026-04-23 12:48 56.33513 43.82450 2179 ft 154 kts 193°
2026-04-23 12:48 56.32498 43.82077 1977 ft 144 kts 192°
2026-04-23 12:48 56.31544 43.81725 1803 ft 135 kts 193°
2026-04-23 12:48 56.30636 43.81391 1617 ft 132 kts 192°
2026-04-23 12:49 56.29742 43.81062 1433 ft 130 kts 193°
2026-04-23 12:49 56.28857 43.80734 1267 ft 130 kts 188°
2026-04-23 12:49 56.28267 43.80517 1125 ft 130 kts 192°
2026-04-23 12:49 56.27088 43.80088 895 ft 130 kts 192°
2026-04-23 12:50 56.26204 43.79761 719 ft 130 kts 191°
2026-04-23 12:50 56.25314 43.79433 515 ft 130 kts 193°
2026-04-23 12:50 56.24428 43.79123 381 ft 130 kts 191°
2026-04-23 12:50 56.23562 43.78801 263 ft 117 kts 191°
2026-04-23 12:51 56.23022 43.78631 369 ft 128 kts 190°
2026-04-23 12:51 56.22125 43.78364 1148 ft 131 kts 190°
2026-04-23 12:51 56.21200 43.78106 1763 ft 139 kts 191°
2026-04-23 12:51 56.20261 43.77760 2387 ft 135 kts 194°
2026-04-23 12:52 56.19348 43.77394 2955 ft 137 kts 195°
2026-04-23 12:52 56.18408 43.77020 2985 ft 137 kts 194°
2026-04-23 12:52 56.17485 43.76661 2990 ft 135 kts 194°
2026-04-23 12:52 56.16569 43.76309 2998 ft 134 kts 194°
2026-04-23 12:53 56.15655 43.75961 3000 ft 135 kts 194°
2026-04-23 12:53 56.14629 43.75602 3024 ft 171 kts 187°
2026-04-23 12:53 56.13372 43.76296 2990 ft 212 kts 143°
2026-04-23 12:53 56.12628 43.78678 3000 ft 233 kts 101°
2026-04-23 12:54 56.12923 43.81565 2997 ft 244 kts 65°
2026-04-23 12:54 56.13927 43.83979 2997 ft 247 kts 46°
2026-04-23 12:54 56.15138 43.86171 2993 ft 248 kts 46°
2026-04-23 12:54 56.16359 43.88355 2995 ft 248 kts 46°
2026-04-23 12:55 56.17583 43.90529 2993 ft 247 kts 46°
2026-04-23 12:55 56.18806 43.92700 2991 ft 247 kts 46°
2026-04-23 12:55 56.20037 43.94887 3003 ft 249 kts 46°
2026-04-23 12:55 56.21268 43.97076 3004 ft 249 kts 46°
2026-04-23 12:56 56.22491 43.99251 3002 ft 247 kts 46°
2026-04-23 12:56 56.23716 44.01432 2996 ft 248 kts 46°
2026-04-23 12:56 56.24945 44.03628 2996 ft 249 kts 46°
2026-04-23 12:56 56.26172 44.05820 3021 ft 249 kts 46°
2026-04-23 12:57 56.27425 44.07819 3021 ft 239 kts 32°
2026-04-23 12:57 56.28940 44.08765 3014 ft 226 kts
2026-04-23 12:57 56.30448 44.08468 3019 ft 214 kts 337°
2026-04-23 12:57 56.31698 44.07157 3014 ft 204 kts 313°
2026-04-23 12:58 56.32575 44.05191 3021 ft 202 kts 300°
2026-04-23 12:58 56.33390 44.03128 3024 ft 202 kts 301°
2026-04-23 12:58 56.34207 44.01068 2976 ft 202 kts 301°
2026-04-23 12:58 56.35021 43.99013 2900 ft 201 kts 301°
2026-04-23 12:59 56.35832 43.96972 2819 ft 200 kts 301°
2026-04-23 12:59 56.36642 43.94927 2744 ft 200 kts 301°
2026-04-23 12:59 56.37453 43.92879 2654 ft 200 kts 301°
2026-04-23 12:59 56.38218 43.90794 2574 ft 198 kts 288°
2026-04-23 13:00 56.38490 43.88464 2505 ft 190 kts 262°
2026-04-23 13:00 56.38181 43.86213 2428 ft 183 kts 238°
2026-04-23 13:00 56.37402 43.84462 2348 ft 178 kts 216°
2026-04-23 13:00 56.36310 43.83481 2270 ft 175 kts 193°
2026-04-23 13:01 56.35119 43.83040 2191 ft 174 kts 193°
2026-04-23 13:01 56.33931 43.82603 2132 ft 174 kts 193°
2026-04-23 13:01 56.32761 43.82173 2001 ft 166 kts 193°
2026-04-23 13:01 56.31674 43.81773 1803 ft 152 kts 193°
2026-04-23 13:02 56.30687 43.81411 1639 ft 138 kts 193°
2026-04-23 13:02 56.29771 43.81073 1432 ft 132 kts 192°
2026-04-23 13:02 56.28889 43.80756 1222 ft 129 kts 192°
2026-04-23 13:02 56.28005 43.80422 1051 ft 130 kts 193°
2026-04-23 13:03 56.27117 43.80091 843 ft 130 kts 192°
2026-04-23 13:03 56.26237 43.79768 672 ft 128 kts 192°
2026-04-23 13:03 56.25353 43.79442 504 ft 129 kts 191°
2026-04-23 13:03 56.24470 43.79135 361 ft 131 kts 191°
2026-04-23 13:04 56.23602 43.78812 259 ft 117 kts 192°
2026-04-23 13:04 56.22968 43.78577 262 ft 66 kts 191°
2026-04-23 13:04 56.22571 43.78427 258 ft 50 kts 192°
2026-04-23 13:04 56.22540 43.78415 259 ft 49 kts 192°
2026-04-23 13:05 56.22294 43.78325 260 ft 33 kts 191°
2026-04-23 13:05 56.22095 43.78254 260 ft 22 kts 191°
2026-04-23 13:05 56.21952 43.78274 259 ft 21 kts 125°
2026-04-23 13:06 56.21914 43.78564 260 ft 7 kts 101°
2026-04-23 13:06 56.21922 43.78632 260 ft 5 kts 36°
2026-04-23 13:06 56.21937 43.78677 260 ft 4 kts 78°
2026-04-23 13:07 56.21935 43.78720 260 ft 3 kts 99°
2026-04-23 13:07 56.21932 43.78753 260 ft 2 kts 99°
2026-04-23 13:07 56.21929 43.78777 260 ft 1 kts 104°